[[{"header":{"parameterUnit":"m.s-1","parameterCategory":1,"la1":30.2991,"la2":30.254,"lo1":-89.0895,"lo2":-89.0444,"dy":0.0017,"dx":0.0017,"nx":28,"ny":28,"refTime":"2025-09-13T21:00:00:Z","depth":0,"parameterNumber":2,"parameterNumberName":"U-component_of_WINDS"},"data":[0,0,0,0,0,0,0,0,0,0,0,0,0,0,0,0,0,0,0,0,0,0,0,0,0,0,0,0,0,0,0,0,0,0,0,0,0,0,0,0,0,0,0,0,0,0,0,0,0,0,0,0,0,0,0,0,0,0,-0.4407,-0.4408,0,-0.4454,-0.4455,-0.4455,-0.4464,-0.4464,-0.4463,-0.4463,-0.4512,-0.4514,-0.4516,0,0,0,0,0,0,0,0,0,0,0,0,0,-0.4328,-0.4329,-0.4407,-0.4408,-0.4408,-0.4454,-0.4455,-0.4455,-0.4464,-0.4464,-0.4463,-0.4463,-0.4512,-0.4514,-0.4516,0,0,0,0,0,0,0,0,0,0,0,0,0,-0.4367,-0.433,-0.4407,-0.4418,-0.442,-0.4454,-0.4455,-0.4455,-0.4464,-0.4464,-0.4463,-0.4462,-0.4511,-0.4514,-0.4516,-0.4543,0,0,-0.4524,-0.4525,0,0,0,0,0,0,0,0,-0.4365,-0.437,-0.4416,-0.4418,-0.4419,-0.4453,-0.4445,-0.4485,-0.4464,-0.4447,-0.4463,-0.4462,-0.4493,-0.4497,-0.4507,-0.4545,-0.4547,-0.4524,-0.4526,-0.4527,-0.4527,0,0,0,0,0,0,0,-0.4362,-0.4368,-0.4426,-0.4417,-0.4419,-0.4422,-0.4427,-0.4452,-0.4473,-0.4449,-0.445,-0.4455,-0.4494,-0.4505,-0.4508,-0.4548,-0.4524,-0.4526,-0.4528,-0.4529,-0.4612,-0.4613,0,0,0,0,0,0,-0.4357,-0.4366,-0.4424,-0.4427,-0.439,-0.4424,-0.4429,-0.4443,-0.4473,-0.4477,-0.4455,-0.4455,-0.4501,-0.4505,-0.451,-0.4544,-0.4527,-0.4529,-0.453,-0.4611,-0.4612,-0.4613,0,0,0,0,0,0,-0.4356,-0.4363,-0.4422,-0.4397,-0.4405,-0.4426,-0.444,-0.4444,-0.4454,-0.4478,-0.4481,-0.4462,-0.45,-0.4507,-0.4535,-0.4546,-0.453,-0.4532,-0.4611,-0.4612,-0.4613,-0.4612,0,0,0,0,0,0,-0.4353,-0.4362,-0.4372,-0.4397,-0.4406,-0.4446,-0.4441,-0.4445,-0.4459,-0.4459,-0.4485,-0.4489,-0.45,-0.4531,-0.4537,-0.4549,-0.4534,-0.461,-0.4611,-0.4612,-0.4611,-0.4613,-0.4615,0,0,0,0,0,-0.435,-0.437,-0.4372,-0.4379,-0.4419,-0.4446,-0.4452,-0.4464,-0.4459,-0.447,-0.4485,-0.4488,-0.4544,-0.4534,-0.4541,-0.4554,-0.4609,-0.4611,-0.4612,-0.4611,-0.4613,-0.4615,0,0,0,0,0,0,-0.4345,-0.4373,-0.4376,-0.4404,-0.4423,-0.4448,-0.4461,-0.4465,-0.4486,-0.4486,-0.45,-0.4506,-0.4534,-0.4547,-0.4535,-0.4582,-0.4576,-0.4579,-0.4573,-0.4575,-0.4577,-0.4573,-0.4536,0,0,0,0,0,-0.4347,-0.4367,-0.439,-0.4413,-0.4422,-0.444,-0.4452,-0.446,-0.4481,-0.4489,-0.4506,-0.4526,-0.4548,-0.4562,-0.4584,-0.4613,-0.462,-0.4626,-0.4628,-0.4629,-0.4631,-0.4649,-0.4652,-0.4618,-0.4618,-0.4618,0,0,-0.4352,-0.4369,-0.4381,-0.4412,-0.4428,-0.4448,-0.4447,-0.4468,-0.4484,-0.4492,-0.452,-0.4533,-0.4557,-0.4586,-0.46,-0.4598,-0.4642,-0.4631,-0.4632,-0.4634,-0.4651,-0.4654,-0.4657,-0.4619,-0.4619,-0.4619,0,0,-0.437,-0.4385,-0.4406,-0.4422,-0.4445,-0.4457,-0.4462,-0.4487,-0.4496,-0.4524,-0.4531,-0.455,-0.4588,-0.4605,-0.4618,-0.4645,-0.4649,-0.4651,-0.466,-0.4677,-0.468,-0.4682,-0.4693,-0.4696,-0.4654,-0.4654,-0.4654,0,-0.4373,-0.4404,-0.4416,-0.4438,-0.4452,-0.446,-0.4482,-0.4497,-0.4526,-0.4536,-0.4533,-0.4581,-0.4597,-0.4631,-0.4638,-0.4648,-0.4655,-0.4648,-0.4678,-0.4681,-0.4684,-0.4693,-0.4697,-0.4654,-0.4654,-0.4654,-0.4654,0,-0.4407,-0.4428,-0.4442,-0.447,-0.4486,-0.4507,-0.4524,-0.4538,-0.4545,-0.4558,-0.4587,-0.4607,-0.4633,-0.4642,-0.4649,-0.4678,-0.4675,-0.4675,-0.467,-0.4687,-0.4696,-0.47,-0.4654,-0.4654,-0.4654,-0.4654,0,0,-0.4422,-0.4458,-0.4463,-0.4476,-0.4503,-0.452,-0.4543,-0.4568,-0.4581,-0.4601,-0.4621,-0.4653,-0.4654,-0.4669,-0.4678,-0.4693,-0.4714,-0.4691,-0.4692,-0.4695,-0.4747,-0.4748,-0.4752,-0.4717,-0.4718,-0.4718,-0.4746,0,-0.4445,-0.4484,-0.4497,-0.453,-0.4551,-0.456,-0.458,-0.4599,-0.4612,-0.4632,-0.4646,-0.4669,-0.4667,-0.4677,-0.4692,-0.4708,-0.4725,-0.4706,-0.4736,-0.4737,-0.473,-0.4757,-0.4757,-0.4781,-0.4749,-0.475,-0.4751,0,-0.4476,-0.4496,-0.4532,-0.4557,-0.4567,-0.4584,-0.4609,-0.4628,-0.465,-0.4659,-0.4676,-0.4684,-0.4709,-0.4703,-0.4738,-0.4725,-0.4738,-0.4748,-0.475,-0.4753,-0.4745,-0.4761,-0.479,-0.4793,-0.4756,-0.4756,-0.4756,0,-0.4484,-0.4521,-0.4548,-0.4559,-0.4589,-0.4601,-0.4614,-0.4636,-0.4651,-0.4673,-0.4683,-0.4708,-0.4722,-0.4741,-0.4757,-0.475,-0.4791,-0.4785,-0.4799,-0.4799,-0.4808,-0.4807,-0.4839,-0.4816,-0.4816,-0.4815,-0.4815,0,-0.4508,-0.4529,-0.4552,-0.4568,-0.4593,-0.4608,-0.4632,-0.4646,-0.4666,-0.4686,-0.4695,-0.4714,-0.4732,-0.4754,-0.4766,-0.4794,-0.48,-0.4808,-0.4811,-0.4807,-0.4806,-0.4816,-0.4815,-0.4816,-0.4816,-0.4816,-0.4816,0,-0.4522,-0.4537,-0.4567,-0.4593,-0.46,-0.4618,-0.4641,-0.4657,-0.4671,-0.4696,-0.4703,-0.4724,-0.475,-0.4767,-0.48,-0.4808,-0.4839,-0.4842,-0.4831,-0.4833,-0.4846,-0.4845,-0.4886,-0.4893,-0.4864,-0.4865,-0.4865,0,-0.4535,-0.4552,-0.4581,-0.4594,-0.4608,-0.463,-0.4645,-0.4661,-0.4676,-0.4704,-0.4718,-0.4744,-0.4766,-0.4807,-0.4826,-0.4852,-0.4855,-0.4868,-0.4859,-0.4855,-0.4856,-0.4855,-0.4857,-0.4869,-0.487,-0.487,-0.487,0,-0.4559,-0.4566,-0.4587,-0.4612,-0.463,-0.465,-0.467,-0.4681,-0.4701,-0.4718,-0.4745,-0.4762,-0.4796,-0.4822,-0.485,-0.4864,-0.4871,-0.4873,-0.4877,-0.4874,-0.4867,-0.4872,-0.4835,-0.4871,-0.4871,-0.4871,-0.4871,-0.4871,-0.4574,-0.4589,-0.4612,-0.4636,-0.4653,-0.4672,-0.4689,-0.4705,-0.4727,-0.4755,-0.4764,-0.4791,-0.4815,-0.4853,-0.4868,-0.4891,-0.489,-0.4896,-0.4898,-0.49,-0.49,-0.4864,-0.4896,-0.4896,-0.4896,-0.4896,-0.4896,0,-0.4598,-0.4613,-0.4635,-0.4663,-0.4682,-0.4686,-0.4709,-0.4725,-0.4749,-0.477,-0.4792,-0.4823,-0.4849,-0.4871,-0.4898,-0.4912,-0.4916,-0.4919,-0.4918,-0.4921,-0.4899,-0.4893,-0.4915,-0.4915,-0.4915,-0.4915,-0.4915,-0.4915,-0.4613,-0.464,-0.465,-0.4686,-0.4702,-0.4728,-0.4741,-0.476,-0.4777,-0.4811,-0.4832,-0.4846,-0.4868,-0.4897,-0.4921,-0.4927,-0.4937,-0.494,-0.4946,-0.4925,-0.4923,-0.4921,-0.4915,-0.4941,-0.4941,-0.4966,-0.4967,-0.4967]},{"header":{"parameterUnit":"m.s-1","parameterCategory":1,"la1":30.2991,"la2":30.254,"lo1":-89.0895,"lo2":-89.0444,"dy":0.0017,"dx":0.0017,"nx":28,"ny":28,"refTime":"2025-09-13T21:00:00:Z","depth":0,"parameterNumber":3,"parameterNumberName":"V-component_of_WINDS"},"data":[0,0,0,0,0,0,0,0,0,0,0,0,0,0,0,0,0,0,0,0,0,0,0,0,0,0,0,0,0,0,0,0,0,0,0,0,0,0,0,0,0,0,0,0,0,0,0,0,0,0,0,0,0,0,0,0,0,0,-0.7139,-0.7139,0,-0.7166,-0.7166,-0.7167,-0.7204,-0.7205,-0.7205,-0.7206,-0.7233,-0.7233,-0.7233,0,0,0,0,0,0,0,0,0,0,0,0,0,-0.712,-0.712,-0.7139,-0.714,-0.714,-0.7166,-0.7166,-0.7167,-0.7204,-0.7205,-0.7206,-0.7206,-0.7233,-0.7233,-0.7233,0,0,0,0,0,0,0,0,0,0,0,0,0,-0.7135,-0.712,-0.7139,-0.7162,-0.7164,-0.7166,-0.7166,-0.7167,-0.7204,-0.7205,-0.7206,-0.7207,-0.7233,-0.7233,-0.7233,-0.7215,0,0,-0.7233,-0.7234,0,0,0,0,0,0,0,0,-0.7134,-0.7136,-0.7158,-0.716,-0.7163,-0.7183,-0.7169,-0.7183,-0.7204,-0.7189,-0.7206,-0.7207,-0.7215,-0.7217,-0.722,-0.7216,-0.7217,-0.7233,-0.7234,-0.7234,-0.7234,0,0,0,0,0,0,0,-0.7133,-0.7135,-0.715,-0.7158,-0.7161,-0.717,-0.7174,-0.7172,-0.7196,-0.719,-0.7193,-0.7195,-0.7217,-0.722,-0.7221,-0.7218,-0.7233,-0.7234,-0.7234,-0.7234,-0.7201,-0.72,0,0,0,0,0,0,-0.7129,-0.7134,-0.7149,-0.7151,-0.7151,-0.717,-0.7173,-0.7175,-0.7196,-0.72,-0.7195,-0.7197,-0.7219,-0.722,-0.7222,-0.7202,-0.7234,-0.7234,-0.7234,-0.7202,-0.7201,-0.72,0,0,0,0,0,0,-0.7128,-0.713,-0.7148,-0.7143,-0.7146,-0.7169,-0.7171,-0.7175,-0.7178,-0.72,-0.7204,-0.7193,-0.722,-0.7222,-0.7217,-0.7204,-0.7234,-0.7234,-0.7203,-0.7202,-0.7201,-0.7163,0,0,0,0,0,0,-0.7128,-0.713,-0.7123,-0.7143,-0.7146,-0.7142,-0.717,-0.7175,-0.7179,-0.7182,-0.72,-0.7203,-0.722,-0.7216,-0.7217,-0.7205,-0.7234,-0.7205,-0.7203,-0.7201,-0.7165,-0.716,-0.7156,0,0,0,0,0,-0.7127,-0.7111,-0.7122,-0.7124,-0.7138,-0.7141,-0.7143,-0.7163,-0.7177,-0.7171,-0.7185,-0.7203,-0.7205,-0.7215,-0.7216,-0.7204,-0.7206,-0.7203,-0.7201,-0.7168,-0.7161,-0.7156,0,0,0,0,0,0,-0.7088,-0.7114,-0.7127,-0.7117,-0.7127,-0.7148,-0.714,-0.7156,-0.7162,-0.7165,-0.719,-0.7193,-0.7185,-0.7194,-0.7205,-0.7188,-0.7208,-0.7206,-0.7182,-0.7177,-0.7172,-0.717,-0.7234,0,0,0,0,0,-0.7079,-0.7079,-0.7101,-0.7091,-0.7095,-0.7116,-0.7118,-0.7133,-0.7144,-0.7149,-0.7162,-0.7172,-0.7175,-0.7176,-0.718,-0.7167,-0.7172,-0.7159,-0.7155,-0.7151,-0.7149,-0.7143,-0.7137,-0.7193,-0.7193,-0.7193,0,0,-0.7059,-0.7073,-0.7072,-0.7083,-0.7093,-0.7092,-0.712,-0.7118,-0.7118,-0.7148,-0.7144,-0.7155,-0.7168,-0.7158,-0.7155,-0.7166,-0.7134,-0.7148,-0.7145,-0.7145,-0.714,-0.7135,-0.713,-0.7192,-0.7192,-0.7192,0,0,-0.7022,-0.7033,-0.7025,-0.7034,-0.7048,-0.7063,-0.7061,-0.708,-0.7088,-0.7085,-0.7108,-0.7108,-0.7113,-0.7121,-0.7126,-0.7093,-0.711,-0.7094,-0.7069,-0.7063,-0.7059,-0.7055,-0.7043,-0.7039,-0.7092,-0.7092,-0.7092,0,-0.6996,-0.6996,-0.7019,-0.7016,-0.7021,-0.7049,-0.7041,-0.7049,-0.7063,-0.7066,-0.7077,-0.7084,-0.7095,-0.7088,-0.708,-0.7083,-0.7082,-0.7092,-0.7058,-0.7054,-0.7051,-0.704,-0.7036,-0.709,-0.709,-0.709,-0.709,0,-0.6963,-0.6963,-0.6955,-0.6969,-0.6973,-0.6967,-0.6989,-0.699,-0.7005,-0.7018,-0.7015,-0.7029,-0.7036,-0.7036,-0.705,-0.7031,-0.7038,-0.7053,-0.7074,-0.7043,-0.7033,-0.703,-0.7087,-0.7087,-0.7088,-0.7089,0,0,-0.6902,-0.6929,-0.6926,-0.6932,-0.6951,-0.6951,-0.6947,-0.6955,-0.6955,-0.6965,-0.6962,-0.6966,-0.6981,-0.6986,-0.7002,-0.6996,-0.697,-0.7013,-0.7014,-0.7004,-0.695,-0.6938,-0.6933,-0.6982,-0.6981,-0.698,-0.6949,0,-0.6868,-0.6864,-0.6884,-0.6874,-0.6875,-0.6902,-0.6898,-0.6909,-0.6922,-0.6924,-0.6938,-0.6941,-0.696,-0.6963,-0.696,-0.6974,-0.6959,-0.6977,-0.6979,-0.6979,-0.6975,-0.6928,-0.6915,-0.6885,-0.6946,-0.6945,-0.6945,0,-0.6829,-0.6836,-0.6826,-0.6845,-0.6846,-0.6843,-0.6852,-0.6854,-0.6867,-0.6877,-0.6883,-0.6901,-0.6899,-0.6919,-0.6917,-0.6928,-0.693,-0.6938,-0.6937,-0.6938,-0.6959,-0.6927,-0.6876,-0.6871,-0.6939,-0.6939,-0.694,0,-0.6785,-0.6793,-0.6788,-0.6793,-0.6815,-0.6812,-0.6821,-0.6835,-0.6839,-0.6847,-0.6849,-0.6857,-0.6861,-0.6866,-0.6886,-0.6899,-0.6881,-0.6903,-0.6889,-0.6888,-0.6883,-0.6883,-0.6831,-0.6885,-0.6886,-0.6886,-0.6886,0,-0.6745,-0.6738,-0.6768,-0.6765,-0.6758,-0.6782,-0.6774,-0.6786,-0.6798,-0.6798,-0.6822,-0.6821,-0.6848,-0.685,-0.6866,-0.6861,-0.6863,-0.687,-0.6875,-0.6868,-0.6867,-0.6869,-0.6872,-0.6884,-0.6885,-0.6885,-0.6885,0,-0.6694,-0.6715,-0.6711,-0.6733,-0.6738,-0.6732,-0.6751,-0.6749,-0.6763,-0.6763,-0.6764,-0.6787,-0.6791,-0.6811,-0.682,-0.683,-0.682,-0.6829,-0.6816,-0.6818,-0.6803,-0.6804,-0.6751,-0.6745,-0.6803,-0.6802,-0.6802,0,-0.6667,-0.6662,-0.6684,-0.6686,-0.6694,-0.6696,-0.67,-0.6724,-0.6727,-0.6742,-0.6738,-0.6744,-0.675,-0.6755,-0.6773,-0.6779,-0.6788,-0.6769,-0.6789,-0.6783,-0.6788,-0.6787,-0.6787,-0.6764,-0.6764,-0.6763,-0.6762,0,-0.6617,-0.6628,-0.6633,-0.6641,-0.6645,-0.6653,-0.6662,-0.6662,-0.6689,-0.6691,-0.6696,-0.67,-0.671,-0.6715,-0.6725,-0.6735,-0.6753,-0.6756,-0.6753,-0.6746,-0.6739,-0.6742,-0.6804,-0.6757,-0.6758,-0.6758,-0.6758,-0.6758,-0.6577,-0.6574,-0.6589,-0.6594,-0.6604,-0.6612,-0.6611,-0.6626,-0.6631,-0.664,-0.6654,-0.6657,-0.6671,-0.6686,-0.6694,-0.6697,-0.6707,-0.6703,-0.6702,-0.67,-0.6697,-0.6739,-0.6699,-0.6699,-0.6699,-0.6699,-0.6699,0,-0.6528,-0.6539,-0.6544,-0.6556,-0.656,-0.6578,-0.6589,-0.6591,-0.6593,-0.6604,-0.661,-0.6616,-0.6621,-0.664,-0.6647,-0.6646,-0.6654,-0.6647,-0.6647,-0.6649,-0.6687,-0.6689,-0.664,-0.664,-0.664,-0.664,-0.664,-0.664,-0.6503,-0.6499,-0.6511,-0.6513,-0.6524,-0.6527,-0.6532,-0.654,-0.6549,-0.6554,-0.6559,-0.6572,-0.6586,-0.6595,-0.6601,-0.6607,-0.6608,-0.6598,-0.6606,-0.6641,-0.6646,-0.6652,-0.6653,-0.6598,-0.6598,-0.6568,-0.6567,-0.6567]}]]